Location: Hannington
(51.2833°N, 1.2167°W)
Time: 00:35:21
(UTC+00:00)

Daily predictions for brighter satellites

Satellite Brightness Start Highest point End
(mag) Time Altitude Azimuth Time Altitude Azimuth Time Altitude Azimuth
H-2A R/B 4.3 00:02:42 10° N 00:06:36 44° WNW 00:08:45 23° SW
Cosmos 2322 Rocket 3.6 00:01:29 10° WSW 00:06:37 35° NW 00:11:47 10° NNE
USA 306 4.2 00:07:12 23° SE 00:07:12 23° SE 00:10:07 10° E
Lacrosse 5 4.1 00:07:00 10° ESE 00:07:21 10° ESE 00:08:00 10° ESE
Cosmos 1844 Rocket 4.3 00:03:21 10° NW 00:07:23 21° W 00:09:35 16° SW
Cosmos 371 Rocket 4.3 00:06:52 25° SE 00:08:42 33° ESE 00:13:02 10° NE
Cosmos 1461 3.3 00:05:06 10° NW 00:09:06 46° WSW 00:10:09 37° SSW
Cosmos 2322 3.7 00:07:23 25° SSW 00:10:49 90° SE 00:16:37 10° NNE
USA 307 4.3 00:11:14 21° SE 00:11:14 21° SE 00:14:05 10° E
Cosmos 2333 Rocket 2.4 00:07:16 20° SW 00:11:14 71° WNW 00:16:56 10° NNE
Cosmos 220 Rocket 3.9 00:11:12 38° S 00:12:41 70° ESE 00:16:53 10° NNE
ATLAS CENTAUR R/B 2.9 00:08:59 10° WNW 00:12:55 25° WSW 00:13:49 23° SW
ASTEX 1 3.4 00:10:46 10° N 00:15:42 82° E 00:18:02 32° S
SL-19 R/B 3.6 00:19:09 57° SSW 00:19:32 66° WSW 00:22:25 10° NNW
Cosmos 1386 Rocket 4.4 00:14:34 10° N 00:20:37 84° E 00:24:14 26° SSE
NOSS 2-2 (C) 4.1 00:16:33 10° NW 00:21:23 76° SW 00:26:47 16° SE
USA 267 3.4 00:17:02 19° SSE 00:21:47 54° SW 00:28:12 10° WNW
USA 229 DEB 3.9 00:16:59 10° NW 00:24:15 72° SW 00:30:40 16° SSE
USA 229 3.9 00:17:05 10° NW 00:24:21 73° SW 00:30:48 16° SSE
Cosmos 1674 Rocket 3.5 00:23:08 35° S 00:24:52 74° E 00:29:12 10° NNE
ATLAS 2AS CENTAUR R/B 4.4 00:18:35 10° W 00:25:34 36° NNW 00:32:13 10° NE
S3M 4.2 00:24:09 26° S 00:27:55 70° E 00:34:15 10° NNE
Cosmos 2219 Rocket 2.4 00:26:27 20° SW 00:30:18 66° NW 00:35:54 10° NNE
Cosmos 2221 Rocket 3.6 00:28:33 33° SSW 00:30:28 70° WNW 00:34:53 10° N
Cosmos 1553 Rocket 4.0 00:28:15 27° SSW 00:31:50 77° WNW 00:38:05 10° N
NOSS 2-2 (E) 4.4 00:27:55 10° NW 00:32:52 56° SW 00:37:14 22° SSE
Cosmos 494 Rocket 4.1 00:29:26 10° NNW 00:34:28 58° WSW 00:36:50 30° S
Cosmos 2150 Rocket 4.2 00:32:33 29° S 00:34:59 57° ESE 00:40:03 10° NNE
Cosmos 1048 Rocket 4.2 00:30:03 10° NNW 00:35:05 53° WSW 00:37:22 30° S
Meteor 1-16 Rocket 4.3 00:30:07 10° NNW 00:36:04 75° W 00:39:24 27° S
CZ-2D R/B 4.0 00:33:13 10° NE 00:37:06 20° E 00:40:53 10° SE
Cosmos 1707 4.0 00:35:39 22° WSW 00:37:22 32° WNW 00:40:54 10° N
Cosmos 1455 Rocket 4.2 00:35:05 10° N 00:39:19 39° ENE 00:42:28 16° SE
ERS-2 3.8 00:36:22 10° N 00:39:23 25° WNW 00:41:16 17° WSW
Cosmos 1378 Rocket 3.5 00:37:53 34° SSW 00:39:48 84° W 00:44:17 10° N
USA 308 3.6 00:40:45 32° SSE 00:41:19 33° SE 00:45:05 10° ENE
Cosmos 1300 2.9 00:38:30 10° N 00:42:17 66° ENE 00:43:56 31° SSE
Okean 2 4.1 00:42:41 27° SW 00:44:28 43° WNW 00:48:24 10° N
USA 290 2.7 00:43:29 35° WSW 00:44:29 51° WNW 00:47:40 10° NNE
Cosmos 1125 Rocket 3.5 00:43:32 29° S 00:46:11 73° ESE 00:51:24 10° NNE
NOSS 0 Rocket 4.0 00:45:00 26° SSW 00:48:39 72° ESE 00:54:54 10° NE
Cosmos 1238 Rocket 3.4 00:47:37 10° NNW 00:50:13 27° W 00:50:31 27° WSW
NOSS 3-1 (A) 4.4 00:43:38 10° NW 00:50:43 48° WSW 00:56:19 21° S
CZ-4C R/B 3.6 00:48:11 10° NW 00:54:52 39° WSW 00:59:25 22° S
SL-14 R/B 3.1 00:53:24 36° S 00:54:54 87° E 00:58:47 10° N
ERBS 3.2 00:55:13 29° SE 00:55:13 29° SE 00:57:42 10° ENE
PSLV R/B 4.2 00:54:50 10° N 00:59:03 48° WNW 01:01:26 24° SW
Cosmos 1975 Rocket 3.9 00:56:40 22° SSE 00:59:06 43° E 01:03:21 10° NNE
Cosmos 1242 Rocket 4.4 00:56:44 10° NW 00:59:10 17° W 00:59:54 16° WSW
Cosmos 2237 Rocket 2.3 00:56:44 26° S 00:59:55 67° ESE 01:05:36 10° NE
Cosmos 1025 Rocket 4.1 01:00:08 20° SSE 01:02:36 37° E 01:06:35 10° NNE
Resurs 1-4 Rocket 3.4 00:58:35 10° NNE 01:03:17 31° E 01:07:01 15° SSE
USA 305 3.0 01:02:25 33° SSW 01:03:57 51° SSE 01:08:00 10° ENE
COSMOS 2428 3.2 00:59:51 17° SW 01:04:05 54° NW 01:09:42 10° NNE
Cosmos 405 Rocket 3.3 01:03:21 29° SW 01:04:52 46° WNW 01:08:34 10° N
Meteor 2-12 Rocket 4.5 00:59:05 10° NNW 01:05:08 68° W 01:08:52 24° S
Gblst 52 Del rocket 4.2 00:59:32 10° W 01:05:38 88° N 01:11:14 10° E
Cosmos 1745 Rocket 4.4 01:00:05 10° NNW 01:06:05 51° W 01:09:40 24° SSW
SME Rocket 3.5 01:03:28 19° SSE 01:06:24 72° ENE 01:11:57 10° NNW
Cosmos 1437 Rocket 3.6 01:04:23 10° NNW 01:07:49 34° W 01:08:52 28° SW
Cosmos 332 Rocket 4.0 01:08:19 27° S 01:10:50 60° ESE 01:15:34 10° NNE
Cosmos 2360 Rocket 4.2 01:07:04 10° W 01:11:31 23° NW 01:15:59 10° NNE
Cosmos 1943 Rocket 2.5 01:06:48 10° NNW 01:12:30 71° ENE 01:18:10 10° SE
Cosmos 1626 3.7 01:11:57 19° WSW 01:13:34 25° WNW 01:16:41 10° NNW
Lacrosse 5 rocket 3.1 01:14:37 15° SE 01:15:27 16° SE 01:17:55 10° E
ADEOS II 3.9 01:12:49 10° NE 01:16:59 23° E 01:21:08 10° SE
GP-B 3.0 01:12:34 10° N 01:17:03 85° W 01:19:29 27° S
Cosmos 2297 4.2 01:12:32 10° NNW 01:18:16 64° NE 01:23:58 10° SE
Cosmos 2298 Rocket 4.2 01:15:02 23° SW 01:18:22 66° WNW 01:23:41 10° NNE
Cosmos 1953 3.3 01:15:22 10° NNW 01:18:58 32° W 01:20:22 25° SW
Cosmos 1867 4.2 01:14:21 14° WSW 01:19:03 55° NW 01:24:28 10° NE
Thor Agena Rocket 3.7 01:15:36 10° NNE 01:20:54 73° ESE 01:24:18 23° S
Cosmos 1544 Rocket 4.0 01:21:31 10° N 01:25:55 59° ENE 01:29:31 15° SSE
USA 215 3.7 01:21:08 10° ENE 01:27:36 66° NNW 01:34:05 10° W
Cosmos 2278 Rocket 3.1 01:23:07 10° NW 01:28:05 32° WSW 01:30:39 22° SSW
NPP 4.3 01:32:04 10° NNE 01:37:19 48° E 01:41:35 15° S
MOS 1 Rocket 3.9 01:33:42 10° SE 01:37:49 49° ENE 01:42:02 10° N
EO 1 Delta rocket 4.1 01:33:57 10° N 01:38:33 64° WNW 01:41:51 21° SSW
Cosmos 2369 Rocket 3.0 01:36:04 10° NNW 01:41:33 51° NE 01:46:59 10° SE
USA 306 2.7 01:42:53 18° WSW 01:45:55 81° SSE 01:50:06 10° ENE
SL-16 R/B 2.6 01:44:11 19° S 01:48:12 56° ESE 01:53:46 10° NE
Cosmos 371 Rocket 4.2 01:45:30 16° WSW 01:49:00 41° WNW 01:53:37 10° NNE
Lacrosse 5 2.4 01:46:10 21° SSW 01:49:14 46° SE 01:54:07 10° ENE
USA 307 2.8 01:46:57 18° WSW 01:49:59 78° SSE 01:54:11 10° ENE
Meteor 1-28 Rocket 4.2 01:47:15 10° SE 01:50:50 45° ENE 01:54:24 10° N
Cosmos 1980 4.1 01:47:57 16° SW 01:52:19 55° NW 01:57:53 10° NNE
SL-16 R/B 2.5 01:46:12 10° SSE 01:52:26 87° WSW 01:58:44 10° NNW
Cosmos 2074 Rocket 4.0 01:46:43 10° N 01:53:03 87° W 01:59:10 11° S
Meteor 2-10 Rocket 4.4 01:49:20 10° NNW 01:54:32 38° W 01:57:59 19° SSW
Cosmos 2333 Rocket 4.3 01:52:23 10° W 01:56:34 21° NNW 02:00:47 10° NNE
Cosmos 1269 Rocket 4.3 01:51:30 10° NNW 01:56:35 49° WSW 02:00:38 16° S
Cosmos 304 Rocket 4.3 01:54:13 18° SW 01:57:38 50° WNW 02:02:21 10° NNE
Cosmos 2084 Rocket 3.1 01:56:07 23° SW 01:58:25 76° SE 02:02:14 10° NE
AQUA 4.3 01:56:11 10° NNE 02:00:54 57° E 02:04:57 14° S
Cosmos 1455 2.1 02:02:05 10° NNW 02:05:46 70° W 02:08:35 17° S
NOSS 3 (A) 4.1 02:07:27 33° WNW 02:07:47 38° NW 02:09:32 10° NNE
Cosmos 2184 Rocket 4.0 02:02:52 10° NNW 02:09:08 72° W 02:15:07 11° S
Meteor 1-24 Rocket 3.7 02:07:37 17° SSW 02:12:00 69° WNW 02:17:26 10° N
Cosmos 2228 3.6 02:08:45 10° N 02:13:05 59° ENE 02:17:23 10° SSE
COSMOS 2455 3.4 02:08:44 14° S 02:13:42 50° ESE 02:19:30 10° NE
Cosmos 1271 Rocket 2.7 02:10:00 10° N 02:13:50 83° ENE 02:17:42 10° SSE
Cosmos 2219 Rocket 4.3 02:11:25 10° WNW 02:15:22 19° NNW 02:19:20 10° NNE
Cosmos 1455 Rocket 4.3 02:13:15 10° NNW 02:16:58 26° W 02:19:33 16° SW
CZ-2D R/B 2.2 02:12:21 10° NNE 02:17:44 74° WNW 02:22:12 15° SSW
USA 308 2.9 02:16:30 10° WSW 02:20:42 81° NNW 02:24:54 10° ENE
Cosmos 1140 Rocket 4.3 02:15:38 10° NNW 02:20:49 56° ENE 02:25:58 10° SE
BREEZE-M DEB (TANK) 4.5 02:18:50 10° W 02:22:59 79° S 02:42:38 10° E
MSX 4.5 02:19:04 10° NNE 02:24:43 53° E 02:30:21 10° S
Cosmos 1536 Rocket 3.5 02:25:14 13° SSW 02:29:06 83° W 02:33:31 10° N
SAR-Lupe-2 3.5 02:25:57 10° NNE 02:29:33 80° WNW 02:32:32 14° SSW
Cosmos 292 Rocket 4.0 02:25:27 13° S 02:29:45 67° ESE 02:34:32 10° NNE
ERBS 2.8 02:27:14 10° W 02:30:12 50° NNW 02:33:13 10° NE
CRYOSAT 2 4.5 02:27:32 11° S 02:32:08 61° W 02:37:00 10° N
Meteor 2-5 Rocket 4.5 02:32:42 13° SW 02:37:31 41° WNW 02:42:52 10° N
Genesis I 3.4 02:34:43 10° NW 02:38:50 80° NE 02:42:51 10° SE
Cosmos 1025 Rocket 4.4 02:37:00 12° SW 02:40:18 27° WNW 02:43:59 10° N
Cosmos 1943 4.2 02:37:00 10° S 02:42:19 43° ESE 02:47:40 10° NE
Meteor 2-1 Rocket 4.4 02:37:01 10° N 02:42:51 80° ENE 02:48:30 10° SSE
Resurs 1-4 Rocket 2.7 02:38:15 10° N 02:43:16 46° WNW 02:48:05 11° SW
USA 305 3.2 02:39:21 10° W 02:43:30 66° N 02:47:40 10° ENE
DEBRIS 4.1 02:29:47 10° W 02:43:40 71° SSW 02:47:27 10° ESE
Cosmos 2237 Rocket 3.6 02:39:27 10° WSW 02:44:27 30° NW 02:49:30 10° NNE
Nadezhda 1 Rocket 4.1 02:39:56 10° SSW 02:46:16 72° WNW 02:52:33 10° N
Helios 1B rocket 4.1 02:42:42 10° NE 02:46:18 29° E 02:49:52 10° SSE
Cosmos 1606 Rocket 3.6 02:44:35 10° N 02:49:03 89° ENE 02:53:26 10° S
Lacrosse 5 rocket 1.3 02:50:08 11° SW 02:53:52 78° SSE 02:58:01 10° ENE
Cosmos 1943 Rocket 3.4 02:51:20 10° NW 02:55:44 24° WSW 03:00:07 10° SSW
IDEFIX/ARIANE 42P 2.7 02:50:52 10° NNE 02:56:10 74° WNW 03:01:24 10° SSW
ADEOS II 2.3 02:51:54 10° N 02:57:06 62° WNW 03:02:16 10° SSW
Gblst 52 Del rocket 4.1 02:51:38 10° WNW 02:57:23 76° SSW 03:02:51 10° ESE
Cosmos 2263 4.3 02:57:19 10° NW 03:02:55 63° WSW 03:08:34 10° SSE
Cosmos 1703 3.5 03:00:09 10° SSW 03:04:01 54° WNW 03:07:52 10° N
COSMOS 2441 4.4 03:00:26 10° NNE 03:05:21 89° E 03:10:12 10° SSW
Helios 1A 3.8 03:02:41 10° SSW 03:06:31 34° W 03:10:24 10° NNW
EO 1 Del DPAF 3.5 03:03:17 10° N 03:06:41 47° WNW 03:10:03 10° SW
IRS-1D 3.7 03:02:52 10° NNE 03:08:16 89° ESE 03:13:33 10° SSW
Cosmos 2366 rocket 4.1 03:03:51 10° N 03:10:03 85° E 03:16:15 10° S
BREEZE-M DEB (TANK) 3.4 03:01:09 10° W 03:10:12 75° S 03:13:16 10° E
USA 215 4.1 03:03:54 10° ENE 03:10:14 55° N 03:16:35 10° WNW
Cosmos 2251 Rocket 4.0 03:05:54 10° NW 03:10:49 41° WSW 03:15:45 10° S
ALOS 3.7 03:08:43 10° NNE 03:13:04 37° E 03:17:23 10° SSE
Lacrosse 4 Rocket 4.0 03:10:53 10° SE 03:13:27 16° ESE 03:16:00 10° ENE
Cosmos 2341 Rocket 4.1 03:07:19 10° NNW 03:13:40 68° W 03:20:00 10° S
Cosmos 1190 Rocket 4.1 03:10:00 10° NNW 03:15:19 87° WSW 03:20:38 10° SSE
SL-8 Rocket 4.1 03:10:20 10° NNW 03:16:39 76° W 03:22:57 10° S
